[[{"header":{"parameterUnit":"m.s-1","parameterCategory":1,"la1":30.2991,"la2":30.254,"lo1":-89.0895,"lo2":-89.0444,"dx":0.0017,"dy":0.0017,"nx":28,"ny":28,"refTime":"2022-12-16T15:00:00:Z","depth":0,"parameterNumber":2,"parameterNumberName":"U-component_of_WINDS"},"data":[0,0,0,0,0,0,0,0,0,0,0,0,0,0,0,0,0,0,0,0,0,0,0,0,0,0,0,0,0,0,0,0,0,0,0,0,0,0,0,0,0,0,0,0,0,0,0,0,0,0,0,0,0,0,0,0,0,0,-3.6601,-3.6602,0,-3.6676,-3.6677,-3.6678,-3.6567,-3.6563,-3.6559,-3.6555,-3.6635,-3.664,-3.6646,0,0,0,0,0,0,0,0,0,0,0,0,0,-3.6362,-3.6367,-3.6601,-3.6602,-3.6603,-3.6676,-3.6677,-3.6678,-3.6567,-3.6563,-3.6558,-3.6553,-3.6633,-3.664,-3.6646,0,0,0,0,0,0,0,0,0,0,0,0,0,-3.6455,-3.6369,-3.6601,-3.6556,-3.6553,-3.6676,-3.6677,-3.6679,-3.6568,-3.6563,-3.6557,-3.6551,-3.6631,-3.6639,-3.6647,-3.6818,0,0,-3.6674,-3.6678,0,0,0,0,0,0,0,0,-3.645,-3.6464,-3.6562,-3.656,-3.6556,-3.6606,-3.6622,-3.6725,-3.657,-3.6563,-3.6555,-3.6548,-3.663,-3.6638,-3.6665,-3.6822,-3.6825,-3.6675,-3.668,-3.6684,-3.6686,0,0,0,0,0,0,0,-3.6444,-3.646,-3.6631,-3.6564,-3.656,-3.6533,-3.654,-3.6641,-3.6628,-3.6563,-3.6555,-3.6565,-3.6627,-3.6657,-3.6666,-3.6826,-3.6674,-3.6682,-3.6687,-3.6691,-3.7127,-3.7133,0,0,0,0,0,0,-3.6442,-3.6455,-3.6628,-3.6633,-3.6487,-3.6542,-3.655,-3.6596,-3.6627,-3.6626,-3.657,-3.656,-3.6646,-3.6657,-3.6669,-3.6872,-3.6683,-3.6692,-3.6697,-3.712,-3.7128,-3.7135,0,0,0,0,0,0,-3.6438,-3.6459,-3.6625,-3.6542,-3.6561,-3.6552,-3.6606,-3.6601,-3.6631,-3.6633,-3.663,-3.6603,-3.6641,-3.6657,-3.6782,-3.6873,-3.6695,-3.6703,-3.7113,-3.7123,-3.7132,-3.7278,0,0,0,0,0,0,-3.6431,-3.6458,-3.6522,-3.6544,-3.6566,-3.6737,-3.6611,-3.6606,-3.6646,-3.6633,-3.6663,-3.6662,-3.6638,-3.6769,-3.679,-3.6881,-3.671,-3.7105,-3.7117,-3.7129,-3.7265,-3.7292,-3.7314,0,0,0,0,0,-3.6423,-3.6561,-3.6526,-3.6548,-3.6647,-3.6743,-3.6755,-3.6724,-3.6653,-3.6718,-3.6719,-3.6661,-3.6859,-3.6783,-3.6806,-3.6901,-3.7099,-3.7114,-3.7128,-3.7254,-3.7286,-3.7314,0,0,0,0,0,0,-3.6551,-3.6563,-3.6525,-3.6674,-3.6708,-3.6724,-3.6805,-3.6759,-3.6814,-3.68,-3.6759,-3.6767,-3.6901,-3.6913,-3.6829,-3.7068,-3.6967,-3.6987,-3.7056,-3.7086,-3.711,-3.7106,-3.6717,0,0,0,0,0,-3.6596,-3.6673,-3.6679,-3.681,-3.6829,-3.6815,-3.6855,-3.6828,-3.6862,-3.6876,-3.6886,-3.6922,-3.6992,-3.7039,-3.7104,-3.7265,-3.7271,-3.7342,-3.7366,-3.7386,-3.7405,-3.7492,-3.7524,-3.7182,-3.7182,-3.7182,0,0,-3.6691,-3.6707,-3.6758,-3.6836,-3.686,-3.6941,-3.6828,-3.6918,-3.6978,-3.689,-3.7009,-3.7018,-3.7055,-3.7199,-3.7263,-3.7213,-3.75,-3.7405,-3.7421,-3.7428,-3.751,-3.7542,-3.7571,-3.7192,-3.719,-3.7189,0,0,-3.6906,-3.6925,-3.7037,-3.7062,-3.7098,-3.7087,-3.7114,-3.7137,-3.7139,-3.7258,-3.7194,-3.7264,-3.7385,-3.7415,-3.7446,-3.767,-3.7619,-3.7692,-3.7821,-3.7907,-3.7934,-3.7957,-3.8039,-3.8069,-3.771,-3.771,-3.7711,0,-3.702,-3.7139,-3.71,-3.7195,-3.7232,-3.7155,-3.7268,-3.7294,-3.7351,-3.7378,-3.732,-3.7471,-3.749,-3.7641,-3.7696,-3.7723,-3.7753,-3.769,-3.7933,-3.7956,-3.7978,-3.8055,-3.8086,-3.7719,-3.7718,-3.7717,-3.7716,0,-3.7278,-3.7361,-3.7447,-3.7502,-3.7548,-3.7652,-3.7629,-3.768,-3.7649,-3.7644,-3.7766,-3.7786,-3.7854,-3.7886,-3.7857,-3.8033,-3.8001,-3.7939,-3.7838,-3.802,-3.8092,-3.8121,-3.7732,-3.7729,-3.7726,-3.7724,0,0,-3.7577,-3.7609,-3.7642,-3.7666,-3.77,-3.7764,-3.7864,-3.7929,-3.7974,-3.8015,-3.8098,-3.8202,-3.8145,-3.818,-3.8152,-3.8227,-3.8405,-3.8155,-3.8155,-3.8202,-3.8602,-3.865,-3.8685,-3.837,-3.8375,-3.838,-3.8599,0,-3.7793,-3.7965,-3.7933,-3.8102,-3.8179,-3.8106,-3.8193,-3.8224,-3.8221,-3.8287,-3.8284,-3.8359,-3.8276,-3.8297,-3.8367,-3.8369,-3.8485,-3.8352,-3.8449,-3.8453,-3.8444,-3.8723,-3.8774,-3.8981,-3.8627,-3.8632,-3.8635,0,-3.8068,-3.8119,-3.8295,-3.8316,-3.8347,-3.8426,-3.8484,-3.8546,-3.8579,-3.8572,-3.8611,-3.8569,-3.8669,-3.8565,-3.8702,-3.8612,-3.865,-3.8656,-3.8663,-3.8673,-3.8557,-3.8742,-3.9045,-3.9077,-3.8679,-3.8676,-3.8672,0,-3.8271,-3.8383,-3.8503,-3.8526,-3.8554,-3.8611,-3.8625,-3.8652,-3.8693,-3.8743,-3.877,-3.8831,-3.8865,-3.8913,-3.8889,-3.8815,-3.9032,-3.8924,-3.903,-3.9031,-3.9081,-3.9079,-3.9397,-3.9102,-3.9101,-3.9101,-3.91,0,-3.8517,-3.8628,-3.8595,-3.8669,-3.8792,-3.8753,-3.8875,-3.8881,-3.8905,-3.8979,-3.8919,-3.899,-3.8953,-3.9021,-3.9003,-3.912,-3.9136,-3.9133,-3.9128,-3.914,-3.9141,-3.9166,-3.9152,-3.9109,-3.9107,-3.9105,-3.9104,0,-3.8766,-3.8748,-3.8874,-3.889,-3.8896,-3.8986,-3.8999,-3.9068,-3.906,-3.9155,-3.9175,-3.9164,-3.9241,-3.9221,-3.9305,-3.9292,-3.9441,-3.9416,-3.9431,-3.9425,-3.9532,-3.9523,-3.988,-3.9925,-3.9599,-3.9602,-3.9605,0,-3.8925,-3.9009,-3.9033,-3.9078,-3.9097,-3.917,-3.9211,-3.9176,-3.9222,-3.9265,-3.933,-3.9401,-3.9457,-3.9584,-3.9584,-3.9648,-3.9625,-3.9745,-3.9634,-3.9644,-3.9629,-3.9625,-3.9634,-3.9768,-3.9772,-3.9775,-3.9778,0,-3.921,-3.9196,-3.9258,-3.9318,-3.9369,-3.9414,-3.9453,-3.9494,-3.9461,-3.9516,-3.9594,-3.9637,-3.9722,-3.9795,-3.9853,-3.9868,-3.9819,-3.9812,-3.984,-3.9855,-3.986,-3.986,-3.9493,-3.9805,-3.9802,-3.98,-3.9798,-3.9797,-3.942,-3.9491,-3.9519,-3.959,-3.9616,-3.9654,-3.972,-3.972,-3.9784,-3.9851,-3.9826,-3.9916,-3.9946,-4.0019,-4.0041,-4.011,-4.0065,-4.0105,-4.0116,-4.0127,-4.0141,-3.9847,-4.0121,-4.012,-4.0119,-4.0118,-4.0118,0,-3.9703,-3.9717,-3.9783,-3.984,-3.9896,-3.9842,-3.9883,-3.9934,-4.0013,-4.0045,-4.01,-4.019,-4.026,-4.0264,-4.0329,-4.0384,-4.0363,-4.0403,-4.0399,-4.0404,-4.0177,-4.0147,-4.0419,-4.0419,-4.0419,-4.0419,-4.0418,-4.0418,-3.9857,-3.9975,-3.9965,-4.0095,-4.0108,-4.0195,-4.0223,-4.0258,-4.0283,-4.0386,-4.0443,-4.0445,-4.0466,-4.0532,-4.0594,-4.0593,-4.0621,-4.0669,-4.0661,-4.0449,-4.042,-4.0391,-4.0363,-4.0675,-4.0676,-4.0881,-4.0883,-4.0885]},{"header":{"parameterUnit":"m.s-1","parameterCategory":1,"la1":30.2991,"la2":30.254,"lo1":-89.0895,"lo2":-89.0444,"dx":0.0017,"dy":0.0017,"nx":28,"ny":28,"refTime":"2022-12-16T15:00:00:Z","depth":0,"parameterNumber":3,"parameterNumberName":"V-component_of_WINDS"},"data":[0,0,0,0,0,0,0,0,0,0,0,0,0,0,0,0,0,0,0,0,0,0,0,0,0,0,0,0,0,0,0,0,0,0,0,0,0,0,0,0,0,0,0,0,0,0,0,0,0,0,0,0,0,0,0,0,0,0,-4.9688,-4.9689,0,-4.9762,-4.9763,-4.9763,-4.9689,-4.9686,-4.9684,-4.9681,-4.9753,-4.9758,-4.9762,0,0,0,0,0,0,0,0,0,0,0,0,0,-4.9481,-4.9485,-4.9688,-4.9689,-4.969,-4.9762,-4.9763,-4.9764,-4.969,-4.9686,-4.9683,-4.968,-4.9752,-4.9757,-4.9763,0,0,0,0,0,0,0,0,0,0,0,0,0,-4.9564,-4.9486,-4.9688,-4.9662,-4.966,-4.9761,-4.9763,-4.9764,-4.9691,-4.9686,-4.9682,-4.9678,-4.975,-4.9757,-4.9764,-4.9893,0,0,-4.9785,-4.9788,0,0,0,0,0,0,0,0,-4.956,-4.9572,-4.9665,-4.9664,-4.9662,-4.9712,-4.9716,-4.9807,-4.9692,-4.9679,-4.9681,-4.9676,-4.9743,-4.975,-4.9773,-4.9897,-4.99,-4.9785,-4.979,-4.9793,-4.9795,0,0,0,0,0,0,0,-4.9554,-4.9568,-4.9717,-4.9666,-4.9665,-4.9645,-4.9653,-4.9733,-4.9734,-4.968,-4.9675,-4.9684,-4.9741,-4.9767,-4.9775,-4.9901,-4.9785,-4.9791,-4.9796,-4.9798,-5.0133,-5.0138,0,0,0,0,0,0,-4.9551,-4.9564,-4.9715,-4.9719,-4.9599,-4.9653,-4.9661,-4.97,-4.9733,-4.9734,-4.9688,-4.9681,-4.9757,-4.9767,-4.9777,-4.9931,-4.9793,-4.9799,-4.9803,-5.0129,-5.0134,-5.0139,0,0,0,0,0,0,-4.9547,-4.9566,-4.9712,-4.964,-4.9658,-4.9661,-4.9706,-4.9704,-4.973,-4.974,-4.9739,-4.9714,-4.9754,-4.9767,-4.9865,-4.9932,-4.9802,-4.9809,-5.0123,-5.013,-5.0137,-5.024,0,0,0,0,0,0,-4.9542,-4.9565,-4.9615,-4.9642,-4.9662,-4.98,-4.971,-4.9709,-4.9742,-4.9733,-4.9764,-4.9765,-4.9752,-4.9855,-4.9872,-4.9939,-4.9814,-5.0117,-5.0126,-5.0135,-5.0231,-5.025,-5.0266,0,0,0,0,0,-4.9535,-4.964,-4.9618,-4.9636,-4.9725,-4.9804,-4.9815,-4.9799,-4.9748,-4.9798,-4.9804,-4.9764,-4.9922,-4.9866,-4.9884,-4.9955,-5.0113,-5.0124,-5.0134,-5.0223,-5.0246,-5.0266,0,0,0,0,0,0,-4.962,-4.9644,-4.9619,-4.9737,-4.9769,-4.9792,-4.9854,-4.9824,-4.9871,-4.9861,-4.9837,-4.9845,-4.9949,-4.9961,-4.9898,-5.0081,-5.0009,-5.0024,-5.007,-5.0092,-5.011,-5.0105,-4.982,0,0,0,0,0,-4.9653,-4.9717,-4.9733,-4.9836,-4.9853,-4.9851,-4.9885,-4.987,-4.9902,-4.9915,-4.9928,-4.996,-5.0017,-5.0055,-5.0108,-5.0231,-5.0237,-5.0289,-5.0307,-5.0321,-5.0335,-5.0401,-5.0424,-5.0174,-5.0174,-5.0174,0,0,-4.9721,-4.9742,-4.9783,-4.9853,-4.9877,-4.9942,-4.9863,-4.9936,-4.9984,-4.9926,-5.0019,-5.003,-5.0064,-5.0176,-5.0225,-5.0189,-5.0404,-5.0335,-5.0346,-5.0352,-5.0414,-5.0438,-5.0459,-5.0182,-5.018,-5.0179,0,0,-4.9879,-4.9901,-4.9989,-5.0014,-5.005,-5.0048,-5.0069,-5.0096,-5.0102,-5.0195,-5.0153,-5.0209,-5.0307,-5.0333,-5.0359,-5.0526,-5.0491,-5.0544,-5.0637,-5.0702,-5.0721,-5.0739,-5.0798,-5.082,-5.0557,-5.0557,-5.0557,0,-4.9959,-5.0057,-5.0038,-5.0114,-5.0146,-5.0096,-5.0184,-5.0209,-5.0261,-5.0284,-5.0242,-5.0365,-5.0384,-5.0501,-5.0542,-5.0564,-5.0587,-5.0541,-5.072,-5.0737,-5.0753,-5.081,-5.0832,-5.0563,-5.0563,-5.0562,-5.0562,0,-5.0153,-5.0222,-5.0288,-5.0341,-5.038,-5.0461,-5.0453,-5.0495,-5.0476,-5.0478,-5.0573,-5.0594,-5.0651,-5.0677,-5.0658,-5.0791,-5.0768,-5.0724,-5.0651,-5.0784,-5.0836,-5.0858,-5.0572,-5.057,-5.0568,-5.0567,0,0,-5.0368,-5.0409,-5.0433,-5.0456,-5.0492,-5.0545,-5.0623,-5.0679,-5.0715,-5.0752,-5.0817,-5.0901,-5.0861,-5.0891,-5.0874,-5.0931,-5.1062,-5.088,-5.0881,-5.0914,-5.1209,-5.1243,-5.1268,-5.1038,-5.1042,-5.1046,-5.1207,0,-5.0528,-5.0666,-5.0651,-5.0782,-5.0845,-5.0799,-5.0867,-5.0896,-5.09,-5.0953,-5.0955,-5.1016,-5.0958,-5.0975,-5.1029,-5.1035,-5.1121,-5.1023,-5.1099,-5.1102,-5.1093,-5.1296,-5.1331,-5.1482,-5.1227,-5.1231,-5.1233,0,-5.0732,-5.0778,-5.0916,-5.0942,-5.0968,-5.103,-5.108,-5.1131,-5.1163,-5.1161,-5.1194,-5.1168,-5.1246,-5.117,-5.1277,-5.1211,-5.124,-5.1248,-5.1253,-5.126,-5.1176,-5.1309,-5.153,-5.1553,-5.1265,-5.1263,-5.126,0,-5.0876,-5.0971,-5.1066,-5.1087,-5.112,-5.1165,-5.118,-5.1208,-5.1242,-5.1285,-5.1307,-5.1358,-5.1386,-5.1425,-5.1413,-5.1359,-5.1522,-5.1446,-5.1523,-5.1524,-5.156,-5.1558,-5.179,-5.1578,-5.1578,-5.1578,-5.1577,0,-5.1056,-5.1143,-5.1131,-5.119,-5.1285,-5.1265,-5.136,-5.1369,-5.1394,-5.1453,-5.1414,-5.147,-5.145,-5.1504,-5.1495,-5.1585,-5.1598,-5.1598,-5.1595,-5.1602,-5.1602,-5.1622,-5.1611,-5.1584,-5.1582,-5.1581,-5.158,0,-5.1233,-5.1229,-5.133,-5.1353,-5.136,-5.143,-5.1449,-5.1503,-5.1503,-5.1578,-5.1594,-5.1594,-5.1656,-5.1647,-5.1716,-5.1709,-5.1822,-5.1805,-5.1812,-5.1808,-5.1886,-5.1879,-5.2139,-5.2172,-5.1939,-5.1941,-5.1943,0,-5.1349,-5.1415,-5.1445,-5.1482,-5.1501,-5.1561,-5.1596,-5.1579,-5.1616,-5.1657,-5.1706,-5.1765,-5.1811,-5.1912,-5.1917,-5.1969,-5.1954,-5.2041,-5.1961,-5.1967,-5.1956,-5.1952,-5.1959,-5.2058,-5.206,-5.2062,-5.2064,0,-5.1555,-5.155,-5.1602,-5.1654,-5.1697,-5.1737,-5.1773,-5.1805,-5.1791,-5.1835,-5.1898,-5.1934,-5.2004,-5.2062,-5.2111,-5.2125,-5.2093,-5.2089,-5.211,-5.2118,-5.212,-5.2121,-5.1856,-5.2083,-5.2081,-5.208,-5.2079,-5.2078,-5.1705,-5.1761,-5.1792,-5.1851,-5.1876,-5.1911,-5.1963,-5.197,-5.2022,-5.2079,-5.2065,-5.2136,-5.2165,-5.2227,-5.2247,-5.2302,-5.2269,-5.2299,-5.2307,-5.2315,-5.2324,-5.2111,-5.231,-5.231,-5.2309,-5.2309,-5.2308,0,-5.191,-5.1927,-5.1982,-5.2033,-5.208,-5.2045,-5.2083,-5.2124,-5.2188,-5.2218,-5.2264,-5.2336,-5.2392,-5.2402,-5.2455,-5.2497,-5.2484,-5.2512,-5.2509,-5.2513,-5.235,-5.2327,-5.2522,-5.2522,-5.2522,-5.2522,-5.2522,-5.2522,-5.2022,-5.2115,-5.2113,-5.2218,-5.2233,-5.2304,-5.2329,-5.236,-5.2383,-5.2466,-5.2513,-5.2519,-5.2541,-5.2595,-5.2645,-5.2646,-5.2668,-5.2702,-5.2698,-5.2546,-5.2524,-5.2504,-5.2482,-5.2707,-5.2707,-5.2856,-5.2858,-5.2859]}]]